KKP59 YBMK-YBBN

Flight info

Callsign KKP59
Flight time 1h 22m
Altitude 37000
Route MK V153 MUNAR Y61 RUROX Y177 BN
Aircraft A320/M-SDE3FGHIRWYZ/LB1

Departure

Time 2026-04-19 23:21
Airport Mackay Airport (YBMK)

Arrival

Time 2026-04-20 00:43
Airport Brisbane International Airport (YBBN)
Time Latitude Longitude Altitude Speed Heading
2026-04-19 22:59 -21.17570 149.18246 23 ft 0 kts 289°
2026-04-19 23:12 -21.17570 149.18247 26 ft 0 kts 289°
2026-04-19 23:15 -21.17569 149.18245 26 ft 1 kts 295°
2026-04-19 23:16 -21.17561 149.18262 29 ft 4 kts 73°
2026-04-19 23:16 -21.17511 149.18267 27 ft 9 kts 338°
2026-04-19 23:16 -21.17450 149.18248 28 ft 10 kts 19°
2026-04-19 23:16 -21.17407 149.18316 25 ft 13 kts 58°
2026-04-19 23:17 -21.17352 149.18404 24 ft 15 kts 47°
2026-04-19 23:17 -21.17263 149.18381 26 ft 15 kts 323°
2026-04-19 23:17 -21.17167 149.18312 25 ft 18 kts 327°
2026-04-19 23:17 -21.17054 149.18248 25 ft 19 kts 332°
2026-04-19 23:18 -21.16937 149.18165 28 ft 21 kts 325°
2026-04-19 23:18 -21.16806 149.18076 23 ft 23 kts 327°
2026-04-19 23:18 -21.16664 149.17980 27 ft 25 kts 328°
2026-04-19 23:18 -21.16513 149.17878 24 ft 27 kts 327°
2026-04-19 23:19 -21.16383 149.17774 26 ft 14 kts 317°
2026-04-19 23:19 -21.16381 149.17786 31 ft 5 kts 134°
2026-04-19 23:19 -21.16391 149.17795 26 ft 0 kts 146°
2026-04-19 23:20 -21.16461 149.17842 25 ft 42 kts 148°
2026-04-19 23:20 -21.16927 149.18157 26 ft 113 kts 148°
2026-04-19 23:20 -21.17738 149.18691 214 ft 149 kts 146°
2026-04-19 23:21 -21.18646 149.19312 867 ft 161 kts 145°
2026-04-19 23:21 -21.19593 149.19996 1569 ft 167 kts 143°
2026-04-19 23:21 -21.20582 149.20680 2258 ft 170 kts 144°
2026-04-19 23:21 -21.21602 149.21344 2768 ft 178 kts 145°
2026-04-19 23:22 -21.22714 149.22106 3107 ft 201 kts 144°
2026-04-19 23:22 -21.24075 149.22739 3476 ft 229 kts 164°
2026-04-19 23:22 -21.25707 149.23115 3937 ft 249 kts 165°
2026-04-19 23:22 -21.27430 149.23494 4724 ft 256 kts 165°
2026-04-19 23:23 -21.29188 149.23877 5588 ft 260 kts 166°
2026-04-19 23:23 -21.30970 149.24263 6465 ft 263 kts 166°
2026-04-19 23:23 -21.32778 149.24657 7277 ft 266 kts 167°
2026-04-19 23:23 -21.34584 149.25052 8077 ft 270 kts 168°
2026-04-19 23:24 -21.36439 149.25457 8884 ft 274 kts 168°
2026-04-19 23:24 -21.38322 149.25870 9674 ft 278 kts 169°
2026-04-19 23:24 -21.40241 149.26290 10346 ft 287 kts 170°
2026-04-19 23:24 -21.42278 149.26736 10572 ft 310 kts 170°
2026-04-19 23:25 -21.44468 149.27217 10739 ft 333 kts 170°
2026-04-19 23:25 -21.46804 149.27731 11035 ft 349 kts 170°
2026-04-19 23:25 -21.49202 149.28274 11599 ft 355 kts 167°
2026-04-19 23:25 -21.51559 149.29147 12193 ft 362 kts 161°
2026-04-19 23:26 -21.53915 149.30143 12821 ft 366 kts 161°
2026-04-19 23:26 -21.56295 149.31147 13442 ft 370 kts 161°
2026-04-19 23:26 -21.58705 149.32160 14046 ft 374 kts 162°
2026-04-19 23:26 -21.61142 149.33181 14570 ft 378 kts 162°
2026-04-19 23:27 -21.63609 149.34213 15066 ft 383 kts 162°
2026-04-19 23:27 -21.66105 149.35257 15559 ft 387 kts 162°
2026-04-19 23:27 -21.68628 149.36315 16055 ft 392 kts 162°
2026-04-19 23:27 -21.71181 149.37388 16537 ft 396 kts 162°
2026-04-19 23:28 -21.73759 149.38474 17036 ft 400 kts 162°
2026-04-19 23:28 -21.76363 149.39574 17519 ft 404 kts 162°
2026-04-19 23:28 -21.78999 149.40687 17997 ft 409 kts 163°
2026-04-19 23:28 -21.81662 149.41812 18465 ft 413 kts 163°
2026-04-19 23:29 -21.84354 149.42947 18878 ft 417 kts 163°
2026-04-19 23:29 -21.87072 149.44088 19311 ft 421 kts 163°
2026-04-19 23:29 -21.89814 149.45240 19760 ft 425 kts 163°
2026-04-19 23:29 -21.92572 149.46404 20222 ft 427 kts 163°
2026-04-19 23:30 -21.95351 149.47572 20664 ft 430 kts 163°
2026-04-19 23:30 -21.98115 149.48733 21082 ft 434 kts 164°
2026-04-19 23:30 -22.00933 149.49919 21499 ft 437 kts 164°
2026-04-19 23:30 -22.03778 149.51119 21911 ft 440 kts 164°
2026-04-19 23:31 -22.06642 149.52331 22298 ft 443 kts 164°
2026-04-19 23:31 -22.09519 149.53551 22693 ft 446 kts 164°
2026-04-19 23:31 -22.12422 149.54785 23085 ft 449 kts 164°
2026-04-19 23:31 -22.15339 149.56022 23467 ft 452 kts 165°
2026-04-19 23:32 -22.18278 149.57268 23827 ft 455 kts 165°
2026-04-19 23:32 -22.21239 149.58525 24147 ft 458 kts 165°
2026-04-19 23:32 -22.24211 149.59785 24469 ft 460 kts 165°
2026-04-19 23:32 -22.27204 149.61053 24793 ft 463 kts 165°
2026-04-19 23:33 -22.30207 149.62327 25097 ft 466 kts 165°
2026-04-19 23:33 -22.33237 149.63613 25397 ft 469 kts 165°
2026-04-19 23:33 -22.36281 149.64903 25685 ft 472 kts 166°
2026-04-19 23:33 -22.39348 149.66201 25995 ft 475 kts 166°
2026-04-19 23:34 -22.42432 149.67507 26301 ft 478 kts 166°
2026-04-19 23:34 -22.45535 149.68823 26602 ft 481 kts 166°
2026-04-19 23:34 -22.48655 149.70154 26899 ft 484 kts 166°
2026-04-19 23:34 -22.51798 149.71497 27219 ft 487 kts 166°
2026-04-19 23:35 -22.54958 149.72846 27504 ft 490 kts 166°
2026-04-19 23:35 -22.58131 149.74202 27832 ft 491 kts 166°
2026-04-19 23:35 -22.61309 149.75559 28247 ft 491 kts 167°
2026-04-19 23:35 -22.64490 149.76916 28646 ft 491 kts 167°
2026-04-19 23:36 -22.67673 149.78273 29040 ft 492 kts 167°
2026-04-19 23:36 -22.70858 149.79629 29434 ft 492 kts 168°
2026-04-19 23:36 -22.74007 149.80969 29831 ft 493 kts 168°
2026-04-19 23:36 -22.77199 149.82330 30249 ft 493 kts 168°
2026-04-19 23:37 -22.80391 149.83696 30594 ft 493 kts 168°
2026-04-19 23:37 -22.83581 149.85062 30998 ft 493 kts 168°
2026-04-19 23:37 -22.86764 149.86427 31401 ft 491 kts 168°
2026-04-19 23:37 -22.89938 149.87791 31821 ft 490 kts 169°
2026-04-19 23:38 -22.93101 149.89154 32249 ft 489 kts 169°
2026-04-19 23:38 -22.96259 149.90510 32658 ft 488 kts 169°
2026-04-19 23:38 -22.99414 149.91860 33068 ft 487 kts 169°
2026-04-19 23:38 -23.02557 149.93206 33483 ft 485 kts 170°
2026-04-19 23:39 -23.04673 149.94114 33776 ft 484 kts 170°
2026-04-19 23:39 -23.07809 149.95460 34219 ft 483 kts 170°
2026-04-19 23:39 -23.10930 149.96801 34577 ft 482 kts 171°
2026-04-19 23:39 -23.14043 149.98137 34954 ft 481 kts 171°
2026-04-19 23:40 -23.17159 149.99474 35244 ft 481 kts 171°
2026-04-19 23:40 -23.20269 150.00809 35537 ft 481 kts 171°
2026-04-19 23:40 -23.23338 150.02130 35826 ft 481 kts 171°
2026-04-19 23:40 -23.26445 150.03468 36118 ft 480 kts 171°
2026-04-19 23:41 -23.29556 150.04809 36387 ft 480 kts 172°
2026-04-19 23:41 -23.32663 150.06148 36675 ft 480 kts 171°
2026-04-19 23:41 -23.35765 150.07486 36967 ft 479 kts 172°
2026-04-19 23:41 -23.38863 150.08821 37159 ft 480 kts 172°
2026-04-19 23:42 -23.45136 150.11515 37211 ft 489 kts 172°
2026-04-19 23:42 -23.51484 150.14267 37199 ft 492 kts 171°
2026-04-19 23:43 -23.57844 150.17033 37198 ft 492 kts 172°
2026-04-19 23:43 -23.64207 150.19786 37204 ft 492 kts 172°
2026-04-19 23:44 -23.70574 150.22546 37191 ft 492 kts 172°
2026-04-19 23:44 -23.76938 150.25308 37233 ft 493 kts 172°
2026-04-19 23:45 -23.83311 150.28080 37221 ft 493 kts 172°
2026-04-19 23:45 -23.89691 150.30847 37214 ft 494 kts 172°
2026-04-19 23:46 -23.96072 150.33627 37213 ft 494 kts 172°
2026-04-19 23:46 -24.02455 150.36413 37214 ft 494 kts 172°
2026-04-19 23:47 -24.08844 150.39202 37242 ft 494 kts 172°
2026-04-19 23:47 -24.15223 150.41985 37201 ft 488 kts 172°
2026-04-19 23:48 -24.21418 150.44727 37204 ft 477 kts 172°
2026-04-19 23:48 -24.27565 150.47413 37203 ft 475 kts 173°
2026-04-19 23:49 -24.33710 150.50089 37206 ft 475 kts 173°
2026-04-19 23:49 -24.39850 150.52779 37206 ft 475 kts 172°
2026-04-19 23:50 -24.45946 150.55464 37213 ft 476 kts 172°
2026-04-19 23:50 -24.51957 150.58801 37224 ft 498 kts 159°
2026-04-19 23:51 -24.57775 150.63050 37226 ft 499 kts 159°
2026-04-19 23:51 -24.63557 150.67297 37228 ft 500 kts 159°
2026-04-19 23:52 -24.69303 150.71504 37226 ft 499 kts 159°
2026-04-19 23:52 -24.75091 150.75727 37245 ft 499 kts 159°
2026-04-19 23:53 -24.80878 150.79954 37249 ft 499 kts 159°
2026-04-19 23:53 -24.86668 150.84203 37231 ft 500 kts 159°
2026-04-19 23:54 -24.92452 150.88452 37232 ft 500 kts 159°
2026-04-19 23:54 -24.98239 150.92699 37233 ft 499 kts 159°
2026-04-19 23:55 -25.04014 150.96943 37229 ft 496 kts 158°
2026-04-19 23:55 -25.09743 151.01166 37225 ft 495 kts 158°
2026-04-19 23:56 -25.15475 151.05393 37228 ft 495 kts 158°
2026-04-19 23:56 -25.21205 151.09621 37226 ft 497 kts 158°
2026-04-19 23:57 -25.27036 151.13902 37219 ft 509 kts 158°
2026-04-19 23:57 -25.32962 151.18274 37248 ft 513 kts 157°
2026-04-19 23:58 -25.38871 151.22672 37219 ft 512 kts 156°
2026-04-19 23:58 -25.44777 151.27064 37219 ft 511 kts 157°
2026-04-19 23:59 -25.50691 151.31455 37223 ft 512 kts 157°
2026-04-19 23:59 -25.56613 151.35862 37242 ft 513 kts 156°
2026-04-20 00:00 -25.62527 151.40269 37239 ft 513 kts 156°
2026-04-20 00:00 -25.68397 151.44642 37231 ft 510 kts 156°
2026-04-20 00:01 -25.74268 151.49064 37229 ft 514 kts 152°
2026-04-20 00:02 -25.82406 151.57013 37232 ft 521 kts 147°
2026-04-20 00:02 -25.87814 151.62404 37233 ft 521 kts 147°
2026-04-20 00:03 -25.93219 151.67792 37250 ft 521 kts 147°
2026-04-20 00:03 -25.98618 151.73170 37281 ft 521 kts 147°
2026-04-20 00:04 -26.03985 151.78521 37220 ft 517 kts 147°
2026-04-20 00:04 -26.09334 151.83859 37222 ft 517 kts 146°
2026-04-20 00:04 -26.12011 151.86531 37079 ft 518 kts 146°
2026-04-20 00:05 -26.14703 151.89219 36203 ft 524 kts 146°
2026-04-20 00:05 -26.17432 151.91945 35396 ft 529 kts 145°
2026-04-20 00:05 -26.20159 151.94677 34886 ft 526 kts 145°
2026-04-20 00:05 -26.22878 151.97403 34178 ft 523 kts 145°
2026-04-20 00:06 -26.25580 152.00112 32860 ft 522 kts 144°
2026-04-20 00:06 -26.28273 152.02815 31566 ft 520 kts 144°
2026-04-20 00:06 -26.30947 152.05503 30395 ft 515 kts 143°
2026-04-20 00:06 -26.33589 152.08160 29044 ft 508 kts 142°
2026-04-20 00:07 -26.36189 152.10776 27957 ft 496 kts 142°
2026-04-20 00:07 -26.38721 152.13327 26753 ft 487 kts 142°
2026-04-20 00:07 -26.41185 152.15814 26100 ft 467 kts 142°
2026-04-20 00:07 -26.43551 152.18207 25375 ft 452 kts 142°
2026-04-20 00:08 -26.45847 152.20526 24649 ft 439 kts 142°
2026-04-20 00:08 -26.48103 152.22797 23950 ft 435 kts 141°
2026-04-20 00:08 -26.50338 152.25043 23175 ft 429 kts 141°
2026-04-20 00:08 -26.52543 152.27260 22498 ft 424 kts 141°
2026-04-20 00:09 -26.54716 152.29450 21811 ft 418 kts 141°
2026-04-20 00:09 -26.56858 152.31613 21140 ft 413 kts 141°
2026-04-20 00:09 -26.58982 152.33761 20481 ft 412 kts 141°
2026-04-20 00:09 -26.61105 152.35907 19834 ft 412 kts 141°
2026-04-20 00:10 -26.63226 152.38053 19189 ft 411 kts 140°
2026-04-20 00:10 -26.65334 152.40197 18566 ft 409 kts 140°
2026-04-20 00:10 -26.67429 152.42349 17918 ft 407 kts 140°
2026-04-20 00:10 -26.69498 152.44486 17323 ft 403 kts 139°
2026-04-20 00:11 -26.71546 152.46611 16744 ft 399 kts 139°
2026-04-20 00:11 -26.73565 152.48709 16183 ft 395 kts 139°
2026-04-20 00:11 -26.75571 152.50792 15581 ft 391 kts 139°
2026-04-20 00:11 -26.77557 152.52849 14986 ft 388 kts 139°
2026-04-20 00:12 -26.79532 152.54888 14379 ft 385 kts 139°
2026-04-20 00:12 -26.81468 152.56888 13729 ft 383 kts 139°
2026-04-20 00:12 -26.83414 152.58900 13087 ft 379 kts 139°
2026-04-20 00:12 -26.85339 152.60891 12440 ft 375 kts 139°
2026-04-20 00:13 -26.87246 152.62867 11794 ft 372 kts 139°
2026-04-20 00:13 -26.89129 152.64820 11189 ft 367 kts 139°
2026-04-20 00:13 -26.90964 152.66720 11034 ft 350 kts 139°
2026-04-20 00:13 -26.92709 152.68527 10912 ft 334 kts 140°
2026-04-20 00:14 -26.94364 152.70242 10783 ft 312 kts 140°
2026-04-20 00:14 -26.95899 152.71835 10617 ft 290 kts 140°
2026-04-20 00:14 -26.97356 152.73341 10212 ft 280 kts 140°
2026-04-20 00:14 -26.98774 152.74799 10066 ft 276 kts 138°
2026-04-20 00:15 -26.99979 152.76491 9877 ft 280 kts 124°
2026-04-20 00:15 -27.00817 152.78480 9750 ft 284 kts 116°
2026-04-20 00:15 -27.01574 152.80524 9623 ft 284 kts 116°
2026-04-20 00:15 -27.02332 152.82562 9328 ft 282 kts 116°
2026-04-20 00:16 -27.03087 152.84589 8993 ft 281 kts 116°
2026-04-20 00:16 -27.03844 152.86613 8633 ft 282 kts 116°
2026-04-20 00:16 -27.04601 152.88641 8279 ft 282 kts 116°
2026-04-20 00:16 -27.05360 152.90674 7923 ft 283 kts 116°
2026-04-20 00:17 -27.06120 152.92711 7565 ft 283 kts 116°
2026-04-20 00:17 -27.06878 152.94748 7257 ft 282 kts 116°
2026-04-20 00:17 -27.07504 152.96837 6932 ft 284 kts 106°
2026-04-20 00:17 -27.07946 152.98983 6728 ft 280 kts 107°
2026-04-20 00:18 -27.08385 153.01109 6533 ft 279 kts 107°
2026-04-20 00:18 -27.08822 153.03226 6334 ft 278 kts 106°
2026-04-20 00:18 -27.09258 153.05334 6144 ft 276 kts 106°
2026-04-20 00:18 -27.09691 153.07430 5955 ft 276 kts 106°
2026-04-20 00:19 -27.10125 153.09527 5759 ft 275 kts 106°
2026-04-20 00:19 -27.10544 153.11617 5576 ft 275 kts 102°
2026-04-20 00:19 -27.10674 153.13762 5393 ft 275 kts 95°
2026-04-20 00:19 -27.10731 153.15872 5257 ft 266 kts 95°
2026-04-20 00:20 -27.10786 153.17916 5125 ft 258 kts 95°
2026-04-20 00:20 -27.10998 153.19862 5026 ft 245 kts 108°
2026-04-20 00:20 -27.11448 153.21671 4879 ft 237 kts 109°
2026-04-20 00:20 -27.12116 153.23296 4734 ft 224 kts 130°
2026-04-20 00:21 -27.13220 153.24448 4589 ft 212 kts 152°
2026-04-20 00:21 -27.14537 153.25070 4455 ft 201 kts 163°
2026-04-20 00:21 -27.15863 153.25336 4343 ft 187 kts 183°
2026-04-20 00:21 -27.17072 153.25049 4243 ft 168 kts 202°
2026-04-20 00:22 -27.18026 153.24517 4152 ft 144 kts 206°
2026-04-20 00:22 -27.18905 153.24017 3994 ft 140 kts 206°
2026-04-20 00:22 -27.19770 153.23525 3835 ft 139 kts 205°
2026-04-20 00:22 -27.20617 153.23043 3671 ft 138 kts 205°
2026-04-20 00:23 -27.21474 153.22555 3501 ft 138 kts 206°
2026-04-20 00:23 -27.22330 153.22068 3314 ft 138 kts 206°
2026-04-20 00:23 -27.23180 153.21583 3133 ft 137 kts 205°
2026-04-20 00:23 -27.24028 153.21100 2948 ft 137 kts 205°
2026-04-20 00:24 -27.24877 153.20617 2771 ft 136 kts 205°
2026-04-20 00:24 -27.25722 153.20135 2589 ft 136 kts 204°
2026-04-20 00:24 -27.26564 153.19655 2411 ft 136 kts 205°
2026-04-20 00:24 -27.27129 153.19333 2302 ft 135 kts 204°
2026-04-20 00:25 -27.27968 153.18854 2112 ft 135 kts 203°
2026-04-20 00:25 -27.28803 153.18378 1931 ft 134 kts 202°
2026-04-20 00:25 -27.29632 153.17905 1749 ft 133 kts 202°
2026-04-20 00:25 -27.30737 153.17274 1510 ft 134 kts 204°
2026-04-20 00:26 -27.31300 153.16953 1380 ft 135 kts 204°
2026-04-20 00:26 -27.32139 153.16475 1213 ft 135 kts 204°
2026-04-20 00:26 -27.32970 153.15999 1031 ft 133 kts 204°
2026-04-20 00:26 -27.33797 153.15528 859 ft 133 kts 205°
2026-04-20 00:27 -27.34625 153.15054 685 ft 137 kts 204°
2026-04-20 00:27 -27.35475 153.14550 484 ft 139 kts 202°
2026-04-20 00:27 -27.36342 153.14068 310 ft 142 kts 204°
2026-04-20 00:27 -27.37221 153.13560 124 ft 142 kts 202°
2026-04-20 00:28 -27.38071 153.13088 43 ft 124 kts 205°
2026-04-20 00:28 -27.38915 153.12568 241 ft 160 kts 204°
2026-04-20 00:28 -27.40051 153.11929 626 ft 202 kts 204°
2026-04-20 00:28 -27.41335 153.11220 1626 ft 204 kts 204°
2026-04-20 00:29 -27.42626 153.10527 2405 ft 205 kts 204°
2026-04-20 00:29 -27.43973 153.10012 3241 ft 207 kts 181°
2026-04-20 00:29 -27.45387 153.10362 3802 ft 215 kts 151°
2026-04-20 00:29 -27.46419 153.11547 3955 ft 215 kts 120°
2026-04-20 00:30 -27.47006 153.13105 4009 ft 217 kts 112°
2026-04-20 00:30 -27.47505 153.14714 4007 ft 218 kts 111°
2026-04-20 00:30 -27.47989 153.16329 3994 ft 218 kts 111°
2026-04-20 00:30 -27.48471 153.17954 4007 ft 219 kts 111°
2026-04-20 00:31 -27.48949 153.19584 4007 ft 219 kts 111°
2026-04-20 00:31 -27.49422 153.21215 4006 ft 218 kts 111°
2026-04-20 00:31 -27.49897 153.22837 4007 ft 218 kts 110°
2026-04-20 00:31 -27.50049 153.24537 4001 ft 223 kts 79°
2026-04-20 00:32 -27.49334 153.26082 3991 ft 229 kts 45°
2026-04-20 00:32 -27.48057 153.27159 4003 ft 232 kts 33°
2026-04-20 00:32 -27.46673 153.28098 4002 ft 232 kts 31°
2026-04-20 00:32 -27.45277 153.29015 4003 ft 232 kts 31°
2026-04-20 00:33 -27.43876 153.29926 4006 ft 233 kts 31°
2026-04-20 00:33 -27.42471 153.30832 4003 ft 233 kts 31°
2026-04-20 00:33 -27.41066 153.31739 4011 ft 233 kts 31°
2026-04-20 00:33 -27.39662 153.32647 4012 ft 232 kts 31°
2026-04-20 00:34 -27.38262 153.33555 4011 ft 232 kts 31°
2026-04-20 00:34 -27.36881 153.34458 4010 ft 232 kts 31°
2026-04-20 00:34 -27.35474 153.35348 4000 ft 232 kts 23°
2026-04-20 00:34 -27.33895 153.35601 4008 ft 232 kts 349°
2026-04-20 00:35 -27.32339 153.35146 4007 ft 232 kts 346°
2026-04-20 00:35 -27.30747 153.34840 4010 ft 233 kts 351°
2026-04-20 00:35 -27.29140 153.34588 3996 ft 233 kts 351°
2026-04-20 00:35 -27.27533 153.34344 4003 ft 233 kts 351°
2026-04-20 00:36 -27.25923 153.34100 4007 ft 233 kts 351°
2026-04-20 00:36 -27.24316 153.33852 4009 ft 233 kts 351°
2026-04-20 00:36 -27.22708 153.33604 3998 ft 233 kts 351°
2026-04-20 00:36 -27.21100 153.33357 3992 ft 233 kts 351°
2026-04-20 00:37 -27.19502 153.33071 3996 ft 232 kts 341°
2026-04-20 00:37 -27.18175 153.32134 4004 ft 226 kts 306°
2026-04-20 00:37 -27.17547 153.30577 4004 ft 218 kts 272°
2026-04-20 00:37 -27.17550 153.28879 4004 ft 217 kts 263°
2026-04-20 00:38 -27.17676 153.27198 3990 ft 216 kts 261°
2026-04-20 00:38 -27.17832 153.25523 3996 ft 216 kts 256°
2026-04-20 00:38 -27.18514 153.24101 3982 ft 208 kts 216°
2026-04-20 00:38 -27.19808 153.23423 3810 ft 206 kts 199°
2026-04-20 00:39 -27.21117 153.22760 3561 ft 206 kts 205°
2026-04-20 00:39 -27.22395 153.22034 3307 ft 206 kts 205°
2026-04-20 00:39 -27.23668 153.21306 3033 ft 205 kts 205°
2026-04-20 00:39 -27.24940 153.20581 2763 ft 204 kts 205°
2026-04-20 00:40 -27.26203 153.19861 2491 ft 203 kts 205°
2026-04-20 00:40 -27.27465 153.19141 2225 ft 203 kts 205°
2026-04-20 00:40 -27.28723 153.18424 1952 ft 203 kts 204°
2026-04-20 00:40 -27.29975 153.17709 1700 ft 199 kts 204°
2026-04-20 00:41 -27.31232 153.16992 1384 ft 200 kts 205°
2026-04-20 00:41 -27.32417 153.16315 1166 ft 180 kts 205°
2026-04-20 00:41 -27.33466 153.15714 940 ft 158 kts 204°
2026-04-20 00:41 -27.34388 153.15188 734 ft 144 kts 204°
2026-04-20 00:42 -27.35268 153.14692 428 ft 141 kts 202°
2026-04-20 00:42 -27.36134 153.14199 313 ft 139 kts 204°
2026-04-20 00:42 -27.37014 153.13687 167 ft 143 kts 202°
2026-04-20 00:42 -27.37887 153.13190 30 ft 132 kts 203°
2026-04-20 00:43 -27.38590 153.12790 24 ft 92 kts 206°
2026-04-20 00:43 -27.38987 153.12487 20 ft 48 kts 232°
2026-04-20 00:43 -27.39047 153.12387 21 ft 0 kts 239°
2026-04-20 00:44 -27.39053 153.12376 19 ft 6 kts 238°
2026-04-20 00:44 -27.39092 153.12304 19 ft 14 kts 245°
2026-04-20 00:44 -27.39130 153.12203 18 ft 15 kts 285°
2026-04-20 00:44 -27.39038 153.12156 18 ft 17 kts 16°
2026-04-20 00:45 -27.38930 153.12223 18 ft 17 kts
2026-04-20 00:45 -27.38853 153.12144 18 ft 16 kts 317°
2026-04-20 00:45 -27.38769 153.12053 18 ft 16 kts 279°
2026-04-20 00:45 -27.38724 153.11998 19 ft 5 kts 333°
2026-04-20 00:46 -27.38711 153.11990 19 ft 0 kts 334°
2026-04-20 00:47 -27.38711 153.11991 19 ft 0 kts 334°